Location: Le Domaine
(47.0333°N, 76.5361°W)
Time: 17:22:53
(UTC-05:00)

S-56A Canister/Altair - Pass Details

Date: 25 November 2019
Orbit: 633 x 2499 km, 38.9° (Epoch: 11 December)

Event Time Altitude Azimuth Distance (km) Brightness Sun altitude
Rises 19:09:28 0° 272° (W) 5,011 13.0 -27.9°
Reaches altitude 10° 19:13:32 10° 265° (W) 3,696 11.9 -28.6°
Maximum altitude 19:21:23 35° 205° (SSW) 1,755 9.4 -30.0°
Enters shadow 19:23:13 30° 175° (S) 1,783 9.2 -30.3°
Drops below altitude 10° 19:26:54 10° 141° (SE) 2,572 - -30.9°
Sets 19:29:15 0° 131° (SE) 3,333 - -31.3°
